Simultaneous Nadir Overpasses (SNOs) Predictions

Prediction of SNOs between AQUA and NPP Satellite Orbit:

Table of predicted SNOs for the next 14.0 days since TLE Epoch: 11/4/2023
Index Date (AQUA) Time (AQUA) Lat,Lon (AQUA) SZA (AQUA ) Date (NPP) Time (NPP) Lat,Lon (NPP) SZA (NPP ) Distance(km) Time Diff (sec)
1 11/05/2023 07:42:30 -80.97, 159.44 76.01 11/05/2023 07:42:20 -80.97, 159.50 76.01 1.15 10
2 11/05/2023 08:31:52 81.00, -32.46 103.94 11/05/2023 08:33:03 81.00, -32.49 103.90 0.65 71
3 11/07/2023 21:27:04 80.97, 133.27 104.76 11/07/2023 21:27:01 80.97, 133.22 104.77 0.88 3
4 11/10/2023 10:24:00 76.95, -88.09 110.74 11/10/2023 10:22:48 77.45, -91.06 111.31 92.00 72
5 11/10/2023 11:11:37 -80.98, 107.30 74.53 11/10/2023 11:11:41 -80.98, 107.30 74.53 0.12 4
6 11/13/2023 00:06:45 -80.95, -86.89 73.78 11/13/2023 00:05:37 -80.95, -86.75 73.75 2.41 68
7 11/13/2023 00:56:06 80.99, 81.45 106.14 11/13/2023 00:56:19 81.00, 81.55 106.12 1.85 13
8 11/15/2023 13:51:14 80.95,-112.92 106.90 11/15/2023 13:50:17 80.95,-112.96 106.94 0.70 57
9 11/15/2023 14:40:37 -80.98, 55.22 73.17 11/15/2023 14:41:00 -80.99, 55.15 73.17 1.19 23
10 11/18/2023 03:35:43 -80.96,-138.92 72.48 11/18/2023 03:34:57 -80.95,-139.05 72.43 2.34 46



Historial Predications of SNOs between AQUA and NPP
